Flag for Germany Weather past 2 weeks in Gütersloh, North Rhine-Westphalia, Germany

46 °F


Feels Like: 45 °F
Forecast: 43 / 50 °F
Wind: 3 mph from West

Location: Bad Lippspringe

Current Time: Dec 1, 2015 at 12:14:53 PM

Latest Report: Dec 1, 2015 at 12:00 PM

Visibility: 25 mi

Pressure: 30.23 "Hg

Humidity: 82%

Dew point: 41 °F

Location of GüterslohLocation

Historic Weather in Gütersloh — Graph


Gütersloh temperature yesterday

Maximum temperature yesterday: 50 °F (at 10:00 PM)
Minimum temperature yesterday: 42 °F (at 2:00 PM)
Average temperature yesterday: 45 °F

Past Weeks' High & Low Weather Summary

High59 °F (Nov 17, 10:00 PM)100% (Nov 25, 11:00 PM)30.27 "Hg (Nov 25, 11:00 PM)
Low33 °F (Nov 23, 9:00 PM)61% (Nov 24, 1:00 PM)29.38 "Hg (Nov 21, 6:00 AM)
Average43 °F86%29.84 "Hg
* Reported Nov 16 11:00 AM — Dec 1 11:00 AM, Gütersloh, Weather by CustomWeather, © 2015

Note: Actual official high and low records may vary slightly from our data, if they occured in-between our weather recording intervals... More about our weather records


Gütersloh weather history for previous 24 hours

Time TempWeatherWind HumidityBarometerVisibility
11:00 AM
Tue, Dec 1
44 °FOvercast.3 mph85%30.22 "Hg28 mi
10:00 AM42 °FOvercast.2 mph91%30.20 "Hg19 mi
8:00 AM41 °FPassing clouds.3 mph86%30.16 "Hg34 mi
7:00 AM43 °FOvercast.3 mph87%30.13 "Hg31 mi
6:00 AM44 °FOvercast.3 mph89%30.12 "Hg37 mi
4:00 AM45 °FOvercast.3 mph85%30.04 "Hg43 mi
3:00 AM47 °FOvercast.6 mph84%30.00 "Hg43 mi
10:00 PM
Mon, Nov 30
50 °FLight rain. Low clouds.12 mph96%29.80 "Hg8 mi
9:00 PM49 °FLight rain. Low clouds.10 mph96%29.80 "Hg3 mi
8:00 PM49 °FLight rain. Low clouds.9 mph95%29.80 "Hg3 mi
7:00 PM48 °FRain. Low clouds.8 mph97%29.82 "Hg2 mi
6:00 PM48 °FLight rain. Overcast.9 mph96%29.83 "Hg4 mi
5:00 PM48 °FLight rain. Low clouds.8 mph97%29.85 "Hg4 mi
4:00 PM44 °FLight rain. Overcast.5 mph96%29.87 "Hg4 mi
3:00 PM42 °FLight rain. Overcast.2 mph93%29.93 "Hg3 mi
2:00 PM42 °FLight rain. Overcast.2 mph92%29.98 "Hg6 mi
1:00 PM44 °FLight rain. Overcast.10 mph68%30.04 "Hg8 mi
12:00 PM44 °FOvercast.6 mph70%30.05 "Hg22 mi
Weather by CustomWeather, © 2015

See weather overviewHow to use our weather pages